AO-07 1 07530U 74089B 19051.90870213 -.00000043 00000-0 12461-4 0 9995 2 07530 101.7285 20.8536 0011908 213.6676 166.8093 12.53636747 25762 UO-11 1 14781U 84021B 19052.84412281 .00000053 00000-0 12709-4 0 9994 2 14781 97.6235 83.0109 0008151 353.9808 6.1307 14.83064944881442 LO-19 1 20442U 90005G 19052.84800111 .00000005 00000-0 17955-4 0 9992 2 20442 98.6373 355.1204 0012580 130.2942 229.9343 14.32917676519640 HUBBLE 1 20580U 90037B 19052.21218750 .00000401 00000-0 13467-4 0 9997 2 20580 28.4688 268.7415 0002583 302.1626 355.1019 15.09175932383127 MET-2/21 1 22782U 93055A 19052.68808200 .00000020 00000-0 47927-5 0 9998 2 22782 82.5459 255.9144 0022949 144.1684 284.7143 13.83815442286688 AO-27 1 22825U 93061C 19052.86510016 -.00000015 00000-0 12158-4 0 9990 2 22825 98.8937 38.8946 0008135 346.5784 13.5180 14.30051681325251 IO-26 1 22826U 93061D 19051.91464365 -.00000017 00000-0 11471-4 0 9990 2 22826 98.8875 37.9301 0008518 337.7314 22.3496 14.30384557325310 FO-29 1 24278U 96046B 19051.90482928 -.00000008 00000-0 27045-4 0 9997 2 24278 098.5189 221.3966 0350345 185.3808 174.3525 13.53089301111628 NOAA-15 1 25338U 98030A 19052.44187192 .00000001 00000-0 19199-4 0 9998 2 25338 98.7569 73.8601 0009847 219.1023 140.9446 14.25895537 80542 GO-32 1 25397U 98043D 19052.81235998 -.00000017 00000-0 11889-4 0 9992 2 25397 98.6779 354.4454 0001951 49.1241 311.0106 14.23660464 71242 ISS 1 25544U 98067A 19052.90003508 .00001100 00000-0 24556-4 0 9990 2 25544 51.6400 214.4719 0005884 53.5657 103.4525 15.53283087157344 NO-44 1 26931U 01043C 19052.81327735 -.00000024 00000-0 22621-4 0 9996 2 26931 67.0517 305.2818 0005355 271.0480 89.0008 14.30532856908252 SO-50 1 27607U 02058C 19052.22730402 -.00000036 00000-0 15860-4 0 9998 2 27607 64.5548 48.7207 0082105 278.8352 80.3460 14.75521432869700 CO-55 1 27844U 03031E 19052.01979102 .00000032 00000-0 34031-4 0 9998 2 27844 98.6865 61.9784 0010067 18.1006 342.0528 14.22161001811567 CO-57 1 27848U 03031J 19052.47116060 .00000017 00000-0 27786-4 0 9990 2 27848 98.6947 62.8956 0010148 27.5649 332.6065 14.21758569811482 RS-22 1 27939U 03042A 19052.71334295 .00000113 00000-0 28781-4 0 9995 2 27939 98.0194 190.9442 0014401 79.4704 280.8129 14.66755347823396 NOAA-18 1 28654U 05018A 19052.39639746 .00000065 00000-0 60442-4 0 9994 2 28654 99.1137 97.5126 0014947 145.0533 215.1621 14.12405343708968 CO-58 1 28895U 05043F 19051.92351306 .00000075 00000-0 23169-4 0 9996 2 28895 097.9389 198.8232 0016792 008.3312 351.8166 14.63631729710026 Falconsat-3 1 30776U 07006E 19051.58176011 .00002415 00000-0 69543-4 0 9994 2 30776 35.4353 124.1631 0002080 136.3503 223.7388 15.35617077662512 CO-65 1 32785U 08021C 19052.76695313 .00000172 00000-0 24215-4 0 9991 2 32785 97.5481 58.0115 0011677 293.5724 66.4267 14.88252525586298 AAUSAT2 1 32788U 08021F 19052.69441300 .00000120 00000-0 16060-4 0 9993 2 32788 97.5050 73.5611 0010674 227.3060 132.7263 14.94607163587440 DO-64 1 32789U 08021G 19052.74132675 .00001158 00000-0 81987-4 0 9994 2 32789 97.4809 105.8589 0013089 159.2207 200.9556 15.06669099589359 CO-66 1 32791U 08021J 19052.77977064 .00000362 00000-0 42191-4 0 9999 2 32791 97.5301 63.8546 0011873 267.1078 92.8782 14.90738058586697 RS-30 1 32953U 08025A 19052.86229037 .00000020 00000-0 75656-4 0 9996 2 32953 82.5011 217.3961 0019583 26.8857 333.3236 12.43087642487797 PRISM 1 33493U 09002B 19052.12274437 .00000756 00000-0 72015-4 0 9997 2 33493 98.1241 328.6271 0014174 207.5803 152.4667 14.96519261547562 NOAA-19 1 33591U 09005A 19052.44358641 .00000023 00000-0 37734-4 0 9990 2 33591 99.1715 40.7811 0013824 351.5278 8.5657 14.12335376517352 TISAT-1 1 36799U 10035E 19051.97567793 .00000276 00000-0 33952-4 0 9993 2 36799 98.1367 200.3547 0013590 110.9040 249.3633 14.91008144467227 JUGNU 1 37839U 11058B 19051.91563942 .00000320 00000-0 28947-4 0 9999 2 37839 19.9620 328.9839 0019094 108.9618 319.9300 14.12642169380582 SRMSAT 1 37841U 11058D 19052.00568685 .00000287 00000-0 12706-4 0 9990 2 37841 19.9732 22.7758 0011740 344.8649 72.5851 14.10624451380050 AO-71 1 37854U 11061E 19052.85181951 .00000776 00000-0 47693-4 0 9994 2 37854 101.7148 250.9778 0161623 52.7606 308.8226 15.06148789399407 HRBE 1 37855U 11061F 19052.14874331 .00001016 00000-0 58889-4 0 9995 2 37855 101.7277 247.3222 0174386 65.1138 296.8089 15.05149013399091 ALMASAT-1 1 38078U 12006B 19052.88025975 .00027910 40489-5 19545-3 0 9992 2 38078 69.4281 238.5996 0187106 84.2820 26.1827 15.54734651379283 HORYU-2 1 38340U 12025D 19052.67911458 .00000140 00000-0 28582-4 0 9990 2 38340 98.3442 87.6677 0012542 133.4073 226.8182 14.75669596363904 RS-40 1 38735U 12041C 19051.75091727 -.00000004 00000-0 -10122-3 0 9993 2 38735 82.4775 301.6321 0017234 129.4263 230.8337 12.42577155297903 BEESAT-3 1 39135U 13015F 19052.81932990 .00000875 00000-0 53624-4 0 9993 2 39135 64.8701 55.6773 0009998 278.5815 81.4177 15.17217352322518 BEESAT-2 1 39136U 13015G 19052.41751362 .00000981 00000-0 59817-4 0 9990 2 39136 64.8690 60.4415 0010833 288.0112 71.9832 15.16649835322380 ZACUBE-1 1 39417U 13066B 19052.82708571 .00000212 00000-0 32890-4 0 9996 2 39417 97.5697 72.8541 0060243 58.0134 302.6916 14.81057614283740 TRITON-1 1 39427U 13066M 19052.88477001 .00000118 00000-0 26730-4 0 9995 2 39427 97.6643 37.5676 0113877 178.7877 181.3627 14.67782217281204 GOMX-1 1 39430U 13066Q 19052.77794586 .00000073 00000-0 22698-4 0 9996 2 39430 97.7305 17.1375 0149829 262.9918 95.4222 14.59199109279556 LO-74 1 39440U 13066AA 19052.79592758 .00000176 00000-0 31252-4 0 9996 2 39440 97.6005 58.1517 0081815 104.5088 256.5216 14.75795340282739 AO-73 1 39444U 13066AE 19052.01386332 .00000247 00000-0 36625-4 0 9992 2 39444 97.5689 73.9103 0059329 55.1538 305.5236 14.81863919282509 SPROUT 1 39770U 14029E 19052.83535066 .00000346 00000-0 44552-4 0 9992 2 39770 97.8788 156.9619 0010254 108.0455 252.1861 14.87181314257464 DUCHIFAT-1 1 40021U 14033M 19052.20202708 .00000462 00000-0 53115-4 0 9997 2 40021 97.9221 336.4350 0014369 78.3622 281.9207 14.90526415254045 NANOSATCBR1 1 40024U 14033Q 19051.83161043 .00000240 00000-0 30894-4 0 9997 2 40024 97.9132 333.7734 0013708 82.4884 277.7890 14.89755353253893 EO-79 1 40025U 14033R 19052.36090858 .00000215 00000-0 28938-4 0 9990 2 40025 97.9069 332.2379 0013942 85.8461 274.4349 14.88869132253860 DTUSAT-2 1 40030U 14033W 19052.72848593 .00000232 00000-0 31011-4 0 9998 2 40030 97.8997 330.9521 0013352 80.5804 279.6921 14.88468548253855 EO-80 1 40032U 14033Y 19052.72942523 .00000239 00000-0 31771-4 0 9998 2 40032 97.9004 330.9543 0013291 81.2117 279.0604 14.88408587253846 ANTELSAT 1 40034U 14033AA 19052.20456163 .00000184 00000-0 34689-4 0 9993 2 40034 97.7782 284.2473 0060009 114.8669 245.8795 14.74046161251375 VELOX-1 1 40057U 14034E 19052.86517515 .00000218 00000-0 38163-4 0 9999 2 40057 98.2193 173.5533 0009664 245.1122 114.9082 14.77588249250512 DAURIA DX 1 1 40071U 14037C 19052.75907066 .00000052 00000-0 14164-4 0 9991 2 40071 98.4055 200.7988 0007123 237.5095 122.5431 14.81235207249942 UKUBE-1 1 40074U 14037F 19052.84909664 .00000202 00000-0 31421-4 0 9992 2 40074 98.4162 208.2796 0003823 225.0535 135.0367 14.83970044250326 HODOYOSHI-1 1 40299U 14070B 19052.78986091 .00000470 00000-0 22760-4 0 9993 2 40299 97.3577 134.9399 0014759 91.0932 24.8563 15.23216214238471 CHUBUSAT-1 1 40300U 14070C 19052.77621410 .00000449 00000-0 22609-4 0 9994 2 40300 97.3386 129.8622 0021213 104.1834 44.3355 15.21917548238230 QSAT-EOS 1 40301U 14070D 19052.77853756 .00001303 00000-0 53698-4 0 9997 2 40301 97.3370 132.2802 0027805 91.1491 61.0256 15.25534547238468 FIREBIRD FU3 1 40377U 15003B 19051.86772740 .00001436 00000-0 60838-4 0 9990 2 40377 99.0997 8.1433 0129475 122.6682 238.7115 15.18223167224045 FIREBIRD FU4 1 40378U 15003C 19052.84394352 .00001590 00000-0 66794-4 0 9997 2 40378 99.1002 9.3867 0129712 119.3298 242.0962 15.18232957224199 GRIFEX 1 40379U 15003D 19052.84890483 .00001036 00000-0 48470-4 0 9990 2 40379 99.0988 4.1755 0137130 135.7302 225.4992 15.15075302223892 NO-84 1 40654U 15025D 19052.30622351 .00012786 00000-0 18593-3 0 05383 2 40654 054.9917 347.4091 0145852 026.4522 334.3846 15.44843167094298 NO-83 1 40655U 15025E 19052.56642413 .00034875 00000-0 24366-3 0 06438 2 40655 054.9666 254.4081 0079944 081.9542 279.0555 15.69642511095270 DEORBITSAIL 1 40719U 15032E 19051.95677518 .00000331 00000-0 54601-4 0 9993 2 40719 97.9223 306.0851 0015880 330.5975 29.4341 14.76642212194880 NUDT-PHONESAT 1 40900U 15049B 19052.79496589 .00001524 00000-0 69173-4 0 9998 2 40900 97.4394 63.3019 0011606 230.9000 250.1516 15.22288269189879 XW-2A 1 40903U 15049E 19052.75585612 .00001495 00000-0 37799-4 0 9999 2 40903 97.3540 94.7809 0012541 202.3578 297.7184 15.41383332192231 XW-2C 1 40906U 15049H 19052.81372891 .00000645 00000-0 37489-4 0 9994 2 40906 97.4649 56.8527 0013270 241.8329 241.9443 15.15514955189292 XW-2D 1 40907U 15049J 19052.73237619 .00000701 00000-0 40258-4 0 9995 2 40907 97.4629 56.4525 0012582 239.6812 206.3085 15.15690497189295 LILACSAT-2 1 40908U 15049K 19052.77194444 .00000347 00000-0 22857-4 0 9999 2 40908 97.4749 55.5130 0014271 244.1354 109.3419 15.13706625189113 XW-2E 1 40909U 15049L 19052.74180991 .00000913 00000-0 48812-4 0 9997 2 40909 97.4587 58.9987 0012238 234.5307 211.9102 15.17525257189453 XW-2F 1 40910U 15049M 19052.80841815 .00000920 00000-0 49817-4 0 9999 2 40910 97.4613 58.2948 0013342 232.5796 251.4256 15.17041213189298 XW-2B 1 40911U 15049N 19052.76198105 .00000326 00000-0 20619-4 0 9991 2 40911 97.4651 57.1000 0012577 240.4410 217.2769 15.15622429189198 DCBB 1 40912U 15049P 19052.74540038 .00000910 00000-0 46258-4 0 9992 2 40912 97.4500 61.6297 0013808 215.7965 230.2674 15.19319294189555 TW-1C 1 40926U 15051B 19052.88083628 .00008353 00000-0 13434-3 0 9990 2 40926 97.1528 99.3057 0010906 85.1279 31.6392 15.53176170192019 TW-1A 1 40928U 15051D 19052.82353013 .00002539 00000-0 65472-4 0 9994 2 40928 97.1590 86.6790 0012835 131.1495 314.9566 15.40022994191185 IO-86 1 40931U 15052B 19050.67521619 .00000631 00000-0 -11729-5 0 9998 2 40931 5.9965 185.3777 0012436 269.3417 90.5202 14.76597304183645 LQSat 1 40958U 15057A 19052.73048885 -.00000010 00000-0 61725-5 0 9992 2 40958 97.9125 125.0114 0016692 256.5373 103.3970 14.73067137181585 AO-85 1 40967U 15058D 19052.30070782 .00000184 00000-0 36959-4 0 06074 2 40967 064.7775 154.8606 0210547 238.9094 119.1202 14.75879322090416 ATHENOXAT-1 1 41168U 15077C 19052.01531602 .00001876 00000-0 64726-4 0 9996 2 41168 14.9670 358.2971 0011025 254.1468 179.9692 15.13343828176121 ChubuSat-2 1 41338U 16012B 19052.38338101 .00000313 00000-0 17673-4 0 9998 2 41338 31.0024 170.2479 0013878 20.6158 339.5035 15.00096823165284 ChubuSat-3 1 41339U 16012C 19052.69939529 .00000230 00000-0 11153-4 0 9999 2 41339 31.0096 166.4878 0013711 31.4816 328.6631 15.00275757165322 Horyu-4 1 41340U 16012D 19051.68436589 .00000440 00000-0 26789-4 0 9991 2 41340 31.0043 165.4596 0014068 37.4018 322.7594 15.01173623165264 OUFTI-1 1 41458U 16025C 19052.75323893 .00001349 00000-0 72681-4 0 9998 2 41458 98.1102 133.6670 0168614 30.5609 330.5303 15.05432358154980 e-st@r-II 1 41459U 16025D 19052.74307578 .00001108 00000-0 60801-4 0 9994 2 41459 98.1104 133.3847 0169895 31.7991 329.3366 15.05104144154956 AAUSAT4 1 41460U 16025E 19052.79196123 .00001162 00000-0 62638-4 0 9993 2 41460 98.1019 134.4030 0159884 25.3721 335.5180 15.06829050155063 LO-87 1 41557U 16033B 19052.88048055 .00001242 00000-0 49735-4 0 9991 2 41557 97.4222 141.0762 0013730 357.5434 2.5735 15.26889839152263 NuSat2 1 41558U 16033C 19052.79829985 .00001274 00000-0 48166-4 0 9993 2 41558 97.4243 141.6664 0012846 0.4965 359.6285 15.28785742152271 Lapan A3 1 41603U 16040E 19052.77967979 .00000070 00000-0 64489-5 0 9996 2 41603 97.3779 114.2722 0015357 87.8823 50.9539 15.19668395147987 Swayam 1 41607U 16040J 19052.72491048 .00001399 00000-0 62415-4 0 9995 2 41607 97.3813 116.8846 0015253 84.0935 276.2039 15.22937599148071 Pratham 1 41783U 16059A 19052.16653067 .00000046 00000-0 18132-4 0 9994 2 41783 98.0842 114.2487 0034241 35.5674 324.7801 14.62973690128369 AlSat 1N 1 41789U 16059G 19052.73352132 .00000054 00000-0 19246-4 0 9998 2 41789 98.0864 116.5480 0029157 24.9458 335.3136 14.64217286128531 ScatSat 1 41790U 16059H 19051.72280665 .00000007 00000-0 12854-4 0 9995 2 41790 98.2267 99.5411 0019261 51.3696 308.9220 14.50890292127223 TY-1 1 41844U 16066D 19052.70622824 .00001153 00000-0 50509-4 0 9991 2 41844 97.4057 61.4714 0013732 237.0102 212.2506 15.23969467126873 Pegasus-1 1 41846U 16066F 19052.10951599 .00000174 00000-0 37599-4 0 9997 2 41846 98.7278 90.3465 0367150 227.7109 129.2415 14.37495437119667 CAS-2T 1 41847U 16066G 19052.71060055 .00000032 00000-0 16015-4 0 9996 2 41847 98.7227 91.4765 0365397 222.7646 134.4577 14.37958870120180 EO-88 1 42017U 17008BX 19051.87775760 .00001316 00000-0 55369-4 0 9996 2 42017 97.4176 120.1284 0005353 211.3970 148.6949 15.25157651111964 HAVELSAT 1 42700U 98067LH 19052.47906262 .00838874 44165-3 62440-3 0 9996 2 42700 51.6174 137.6196 0008012 8.1472 351.9673 16.14785193101501 SOMP2 1 42701U 98067LJ 19052.66553489 .00224474 31892-4 45775-3 0 9998 2 42701 51.6301 143.6432 0004796 9.9432 350.1671 15.98978229101430 PHOENIX 1 42706U 98067LP 19052.72944430 .00077979 00000-0 31862-3 0 9991 2 42706 51.6264 151.6762 0002635 10.5609 349.5450 15.85403101101257 qbee 1 42708U 98067LR 19052.68873482 .01074427 81674-3 68454-3 0 9998 2 42708 51.6138 137.5376 0008352 7.6562 352.4581 16.17012970101388 ZA-AeroSat 1 42713U 98067LU 19052.74571086 .00073489 00000-0 32829-3 0 9990 2 42713 51.6326 157.1303 0002915 15.5128 344.5964 15.83554729100848 SpaceCube 1 42717U 98067LY 19052.70374212 .00776191 36364-3 62918-3 0 9999 2 42717 51.6092 138.2683 0007876 7.8493 352.2645 16.13560342100454 NJUST-1 1 42722U 98067MB 19052.90518699 .00043493 00000-0 22981-3 0 9999 2 42722 51.6376 161.0699 0003308 73.9144 26.3594 15.80149995 99874 LO-90 1 42725U 98067ME 19052.83229373 .00146961 19641-4 36788-3 0 9991 2 42725 51.6307 147.6121 0004356 16.9997 83.0939 15.95422866 99957 nSIGHT1 1 42726U 98067MF 19052.83864111 .00021734 00000-0 20675-3 0 9990 2 42726 51.6376 184.3761 0004810 86.6770 273.4776 15.66763852 99472 SNUSAT 1B 1 42727U 98067MG 19052.48864828 .00153090 20191-4 40756-3 0 9997 2 42727 51.6260 149.9271 0005068 21.1658 338.9558 15.94253741 99852 SUSat 1 42730U 98067MK 19052.65535110 .00222598 31215-4 48387-3 0 9996 2 42730 51.6275 145.8208 0004777 5.4327 354.6733 15.97843696 99768 Aoxiang-1 1 42735U 98067MQ 19052.83082468 .00048389 00000-0 24015-3 0 9994 2 42735 51.6320 159.7287 0003015 85.3775 8.2428 15.81470032101011 BeEagleSat 1 42736U 98067MR 19052.49805724 .00084060 00000-0 30144-3 0 9991 2 42736 51.6293 153.8511 0002823 51.6415 308.4843 15.88045805 99755 CAS-4B 1 42759U 17034B 19052.75789625 .00000139 00000-0 22054-4 0 9998 2 42759 43.0180 152.9631 0011443 239.6755 255.5714 15.09489354 93168 CAS-4A 1 42761U 17034D 19052.79515611 .00000064 00000-0 17463-4 0 9992 2 42761 43.0189 152.3699 0011372 242.2503 263.8688 15.09565179 93162 UCLSat 1 42765U 17036A 19052.16178414 .00001097 00000-0 50385-4 0 9992 2 42765 97.3678 112.6022 0009965 284.9331 75.0802 15.22439760 92584 NIUSat 1 42766U 17036B 19052.46564944 .00000867 00000-0 42280-4 0 9992 2 42766 97.3677 111.6082 0014117 271.3976 88.5642 15.20864678 92410 LituanicaSAT 2 1 42768U 17036D 19052.13707154 .00001799 00000-0 80967-4 0 9999 2 42768 97.3707 112.1369 0013675 273.1046 86.8625 15.22303001 92429 Aalto 1 1 42775U 17036L 19052.37990613 .00000718 00000-0 35290-4 0 9996 2 42775 97.3667 111.8243 0012430 271.9767 88.0045 15.21133043 92373 URSA MAIOR 1 42776U 17036M 19052.74493613 .00000785 00000-0 38169-4 0 9998 2 42776 97.3675 112.2933 0012231 270.4275 89.5559 15.21251878 92431 Max Valier Sat 1 42778U 17036P 19052.82283517 .00000819 00000-0 39105-4 0 9998 2 42778 97.3708 112.9793 0010794 274.8448 85.1556 15.21777135 92464 Pegasus 1 42784U 17036V 19052.16735305 .00001003 00000-0 46642-4 0 9999 2 42784 97.3682 112.4658 0010513 285.1006 74.9067 15.22208816 92381 NUDATSat 1 42787U 17036Y 19051.97125752 .00001501 00000-0 66689-4 0 9995 2 42787 097.3724 112.7694 0011107 292.4773 067.5287 15.23034516092226 SUCHAI 1 1 42788U 17036Z 19052.66446135 .00001266 00000-0 57454-4 0 9992 2 42788 97.3685 113.1772 0010084 282.4480 77.5628 15.22573008 92540 SKCUBE 1 42789U 17036AA 19051.81900644 .00001078 00000-0 49484-4 0 9994 2 42789 097.3683 112.3125 0009967 286.0397 073.9742 15.22492772092339 VZLUSAT 1 1 42790U 17036AB 19051.89267904 .00001493 00000-0 66322-4 0 9990 2 42790 097.3694 112.6971 0009548 285.0574 074.9606 15.23041436092367 VENTA 1 1 42791U 17036AC 19051.86044992 .00001067 00000-0 48981-4 0 9996 2 42791 097.3682 112.4029 0009615 286.6240 073.3941 15.22517559092334 Robusta 1B 1 42792U 17036AD 19052.15678764 .00001154 00000-0 52546-4 0 9999 2 42792 97.3682 112.7615 0009522 285.5624 74.4561 15.22655365 92406 D-SAT 1 42794U 17036AF 19052.10020502 .00000241 00000-0 26330-4 0 9995 2 42794 97.5572 101.8703 0127020 172.8704 187.4361 14.91023492 90817 BIRD-J 1 42820U 98067MU 19052.18690652 .00088709 00000-0 34267-3 0 9997 2 42820 51.6298 160.0836 0003410 4.6919 355.4116 15.86509677 93102 BIRD-G 1 42821U 98067MV 19052.16975886 .00069641 00000-0 30751-3 0 9999 2 42821 51.6261 162.9597 0003100 3.8465 356.2562 15.83820067 93044 BIRD-M 1 42822U 98067MW 19052.43513756 .00077027 00000-0 31693-3 0 9997 2 42822 51.6312 160.2832 0003138 11.9387 348.1690 15.85261407 93107 BIRD-B 1 42823U 98067MX 19051.75919567 .00064559 00000-0 25926-3 0 9990 2 42823 51.6287 163.2561 0003892 22.3475 337.7697 15.85829594 93009 BIRD-N 1 42824U 98067MY 19052.66997865 .00091223 00000-0 37791-3 0 9990 2 42824 51.6319 159.6638 0003675 33.8422 326.2815 15.85051737 93122 TechnoSat 1 42829U 17042E 19052.76814872 .00000094 00000-0 14866-4 0 9991 2 42829 97.5779 310.4165 0015811 89.2906 271.0124 14.90925935 87516 TOMSK-TPU 120 1 42910U 98067MZ 19052.86769741 .00028774 00000-0 19922-3 0 9995 2 42910 51.6354 173.6047 0004646 73.9774 9.6452 15.74243594 86573 TANYUSHA 1 1 42911U 98067NA 19052.90722314 .00042124 00000-0 24218-3 0 9995 2 42911 51.6290 168.5587 0003991 62.5136 40.1083 15.78291172 86628 TANYUSHA 2 1 42912U 98067NB 19052.75724292 .00035536 00000-0 22305-3 0 9990 2 42912 51.6354 172.1331 0003249 70.4635 46.1803 15.76394667 86588 TNS 0-2 1 42914U 98067ND 19051.83811673 .00031082 00000-0 21417-3 0 9995 2 42914 51.6329 179.7393 0003465 62.7217 297.4135 15.74316590 86398 QIKCOM-1 1 42983U 98067NF 19052.80370925 .00004205 00000-0 61708-4 0 9994 2 42983 51.6389 206.6797 0004362 53.6636 306.4758 15.57955690 75110 AO-91 1 43017U 17073E 19052.78486339 .00000307 00000-0 29506-4 0 9994 2 43017 97.7218 338.7385 0258712 178.7524 181.4391 14.78395000 67981 EcAMSat 1 43019U 98067NG 19052.80192993 .00006869 00000-0 90364-4 0 9990 2 43019 51.6395 203.6988 0004798 30.8999 329.2276 15.59750197157474 PICSAT 1 43132U 18004X 19052.71963820 .00001195 00000-0 53490-4 0 9990 2 43132 97.5026 120.7072 0008492 310.8457 49.2042 15.23246712 61690 AO-92 1 43137U 18004AC 19052.70552786 .00000933 00000-0 42453-4 0 9995 2 43137 97.5019 120.7036 0008089 313.5947 46.4618 15.23207175 61680 TianYi 2 1 43155U 18008A 19052.73560140 .00000797 00000-0 51453-4 0 9993 2 43155 97.4995 127.6819 0018385 12.6895 102.5500 15.10944926 60160 Zhou Enlai 1 43156U 18008B 19052.81447906 .00001019 00000-0 65716-4 0 9992 2 43156 97.5046 127.6739 0015315 10.8437 128.0504 15.10438240 60155 TianYi 6 1 43158U 18008D 19052.76557664 .00000520 00000-0 35767-4 0 9990 2 43158 97.4985 127.2381 0014182 7.8371 144.1640 15.10065016 60114 S-Net G 1 43186U 18014G 19052.82278792 .00000646 00000-0 61775-4 0 9994 2 43186 97.7165 322.9323 0012046 43.3462 316.8704 14.96582868 57657 S-Net H 1 43187U 18014H 19052.82261607 .00000649 00000-0 62019-4 0 9997 2 43187 97.7163 322.9234 0012047 43.2407 316.9758 14.96582730 57654 S-Net J 1 43188U 18014J 19052.82240642 .00000629 00000-0 60302-4 0 9995 2 43188 97.7165 322.9360 0012036 43.3430 316.8736 14.96583213 57654 S-Net K 1 43189U 18014K 19052.82270576 .00000648 00000-0 61946-4 0 9991 2 43189 97.7163 322.9215 0012044 43.2312 316.9852 14.96582376 56208 FMN 1 1 43192U 18015A 19052.19937369 .00001490 00000-0 64709-4 0 9992 2 43192 97.3814 181.6127 0016358 353.4703 6.6319 15.23765726 58425 Shaonian Xing 1 43199U 18015H 19051.92642948 .00001168 00000-0 50361-4 0 9996 2 43199 097.3597 180.7054 0017823 006.0329 354.1116 15.24404447058429 1KUNS-PF 1 43466U 98067NP 19052.79588612 .00019958 00000-0 23065-3 0 9997 2 43466 51.6379 205.8787 0000349 4.6366 355.4631 15.61874876 44620 UBAKUSAT 1 43467U 98067NQ 19052.48325374 .00010759 00000-0 13646-3 0 9992 2 43467 51.6373 209.0362 0002255 347.7484 12.3454 15.60028671 44568 Irazu 1 43468U 98067NR 19052.81273560 .00026266 00000-0 28529-3 0 9995 2 43468 51.6375 204.4862 0000323 325.2622 34.8351 15.63294972144630 EnduroSat One 1 43551U 98067NZ 19052.80478554 .00016420 00000-0 20896-3 0 9997 2 43551 51.6382 209.6752 0005930 68.5614 291.6010 15.59488365 34812 EQUISat 1 43552U 98067PA 19051.88268831 .00010887 00000-0 14430-3 0 9998 2 43552 51.6384 214.7725 0006355 65.3288 294.8366 15.58829193 34621 UiTMSat 1 1 43589U 98067PD 19052.33055827 .00012988 00000-0 17213-3 0 9994 2 43589 51.6358 213.2467 0005651 75.6809 284.4810 15.58630843 30425 Maya 1 1 43590U 98067PE 19051.75023760 .00009955 00000-0 13347-3 0 9996 2 43590 51.6357 216.1222 0005760 73.5657 286.5968 15.58638445 30261 Bhutan 1 1 43591U 98067PF 19052.83486349 .00015766 00000-0 20676-3 0 9993 2 43591 51.6379 210.6211 0005896 78.9675 281.1980 15.58722551 30438 SiriusSat 1 1 43595U 98067PG 19051.87080126 .00010337 00000-0 14122-3 0 9991 2 43595 51.6364 216.1754 0003360 29.9361 330.1822 15.58090080 29456 SiriusSat 2 1 43596U 98067PH 19052.46629867 .00012077 00000-0 16471-3 0 9991 2 43596 51.6375 213.4223 0004043 32.9882 327.1362 15.57947227 29549 Tanusha-3 1 43597U 98067PJ 19052.42145311 .00014095 00000-0 18570-3 0 9999 2 43597 51.6360 213.0838 0003435 47.5483 312.5800 15.58714412 29549 SurfSat 1 43614U 18070B 19052.74955155 .00002838 00000-0 78368-4 0 9999 2 43614 93.0383 315.3657 0018389 44.1535 316.1182 15.36974003 24441 CP-7 DAVE 1 43615U 18070C 19052.75069377 .00002380 00000-0 65821-4 0 9995 2 43615 93.0384 315.3666 0018401 43.6312 316.6392 15.36932836 24441 ELFIN-B 1 43616U 18070D 19052.40527625 .00003666 00000-0 10005-3 0 9994 2 43616 93.0345 315.1632 0019558 47.6520 312.6386 15.37289366 24396 ELFIN-A 1 43617U 18070E 19052.20649003 .00003823 00000-0 10430-3 0 9995 2 43617 93.0403 315.2050 0018508 45.6722 314.6045 15.37324289 24368 STARS-Me Mother 1 43640U 98067PQ 19052.65131590 .00009645 00000-0 14017-3 0 9994 2 43640 51.6378 213.8966 0005536 22.1787 337.9444 15.56494833 21487 CubeBel 1 1 43666U 18083E 19052.77128145 .00000815 00000-0 44255-4 0 9995 2 43666 97.5304 77.9948 0013907 231.4988 219.3514 15.17315701 17558 Changshagaoxin 1 43669U 18083H 19052.41394651 .00000841 00000-0 46500-4 0 9990 2 43669 97.5170 77.2996 0009977 221.3509 138.6970 15.16580299 17450 Ten-Koh 1 43677U 18084G 19052.85077159 -.00000286 00000-0 -23716-4 0 9998 2 43677 97.8384 167.4422 0014864 311.2634 48.7328 14.90122917 17216 Diwata-2 1 43678U 18084H 19052.80892369 .00000122 00000-0 17871-4 0 9994 2 43678 97.8382 167.6603 0009514 339.2376 20.8467 14.91526651 17227 IRVINE 01 1 43693U 18088D 19052.71453867 .00002500 00000-0 11120-3 0 9993 2 43693 85.0355 35.3238 0016226 262.3112 97.6287 15.20845327 15586 QO-100 1 43700U 18090A 19052.69586769 .00000121 00000-0 00000 0 0 9998 2 43700 0.0102 128.0062 0001531 233.4110 66.1847 1.00273296 1128 Reaktor Hello World 1 43743U 18096AA 19052.76540588 .00000881 00000-0 36674-4 0 9992 2 43743 97.4737 122.8314 0019531 32.3031 114.4206 15.26308307 12895 MinXSS-2 1 43758U 18099A 19052.18373544 -.00000045 00000-0 11831-5 0 9995 2 43758 97.7574 125.5634 0015630 4.8498 355.2871 14.95309477 11879 OBJECT B 1 43759U 18099B 19052.86497702 .00000246 00000-0 27767-4 0 9990 2 43759 97.7574 126.2158 0014023 356.2508 3.8605 14.95070055 11968 OBJECT D 1 43761U 18099D 19052.20074780 .00000248 00000-0 27938-4 0 9990 2 43761 97.7598 125.5707 0014418 4.8700 355.2658 14.94971623 11868 AO-95 1 43770U 18099N 19052.75243607 .00000567 00000-0 57542-4 0 9994 2 43770 97.7579 126.0527 0014715 9.9766 350.1744 14.94682460 11959 OBJECT P 1 43771U 18099P 19052.75201194 .00000595 00000-0 60057-4 0 9996 2 43771 97.7578 126.0527 0014704 10.0454 350.1057 14.94692042 11947 RANGE-B 1 43772U 18099Q 19052.74872791 .00000757 00000-0 74922-4 0 9999 2 43772 97.7628 126.1073 0013894 357.3798 2.7347 14.94760606 11942 RANGE-A 1 43773U 18099R 19052.74892135 .00000534 00000-0 54434-4 0 9993 2 43773 97.7527 126.0089 0013342 357.9259 2.1904 14.94741049 11946 OBJECT T 1 43775U 18099T 19052.74192172 .00000513 00000-0 52314-4 0 9991 2 43775 97.7585 126.0808 0014504 1.4846 358.6415 14.94869458 11935 OBJECT U 1 43776U 18099U 19052.13947218 .00000418 00000-0 43582-4 0 9995 2 43776 97.7589 125.4850 0014631 3.2441 356.8872 14.94865445 11841 OBJECT W 1 43778U 18099W 19052.74703810 .00000620 00000-0 62201-4 0 9996 2 43778 97.7487 125.9665 0014061 6.9375 353.2038 14.94782627 11522 OBJECT X 1 43779U 18099X 19052.74190988 .00000483 00000-0 49544-4 0 9995 2 43779 97.7583 126.0804 0014531 1.4481 358.6779 14.94867513 11931 MOVE-II 1 43780U 18099Y 19052.74028022 .00000828 00000-0 81030-4 0 9995 2 43780 97.7562 126.0490 0013499 8.6392 351.5058 14.94923635 11933 SNUSat 2 1 43782U 18099AA 19052.20127547 .00000432 00000-0 44833-4 0 9991 2 43782 97.7573 125.5401 0012577 359.8743 0.2472 14.94972757 11869 SnugLite 1 43784U 18099AC 19052.19733919 .00000303 00000-0 32915-4 0 9992 2 43784 97.7537 125.5073 0015096 6.8553 353.2871 14.95046053 11870 ITASat 1 1 43786U 18099AE 19052.19634520 .00000243 00000-0 27492-4 0 9999 2 43786 97.7591 125.5663 0015183 5.6648 354.4741 14.95063110 11878 OBJECT AH 1 43789U 18099AH 19052.17638369 -.00000086 00000-0 -25311-5 0 9991 2 43789 97.7572 125.5655 0015861 4.1905 355.9446 14.95450512 11564 EAGLET 1 1 43790U 18099AJ 19052.17586698 -.00000275 00000-0 -19574-4 0 9993 2 43790 97.7584 125.5831 0013700 11.6347 348.5188 14.95445658 11564 ESEO 1 43792U 18099AL 19052.17425945 -.00000305 00000-0 -22275-4 0 9998 2 43792 97.7566 125.5696 0013516 8.9734 351.1725 14.95470670 11625 CSIM 1 43793U 18099AM 19052.17138793 .00000110 00000-0 15114-4 0 9997 2 43793 97.7520 125.5107 0012987 7.2236 352.9169 14.95556218 11593 Astrocast 0.1 1 43798U 18099AS 19052.76537783 .00000045 00000-0 93075-5 0 9999 2 43798 97.7572 126.1813 0012163 351.2805 8.8203 14.95686944 11941 OBJECT AV 1 43801U 18099AV 19052.86031663 .00000200 00000-0 23432-4 0 9993 2 43801 97.7531 126.1680 0013976 356.8982 3.2150 14.95164390 11961 JO-97 1 43803U 18099AX 19052.19066153 .00000141 00000-0 18120-4 0 9995 2 43803 97.7548 125.5257 0015187 6.5021 353.6394 14.95176416 11866 Suomi 100 1 43804U 18099AY 19052.85956649 .00000188 00000-0 22385-4 0 9996 2 43804 97.7546 126.1870 0015201 4.4013 355.7338 14.95180749 11975 Al Farabi 2 1 43805U 18099AZ 19052.85837856 .00000273 00000-0 30076-4 0 9996 2 43805 97.7547 126.1888 0015226 4.5002 355.6353 14.95212361 11974 OBJECT BA 1 43806U 18099BA 19052.85839557 .00000074 00000-0 12049-4 0 9996 2 43806 97.7547 126.1864 0014915 2.7701 357.3600 14.95196080 11668 OBJECT BD 1 43809U 18099BD 19052.85131700 -.00000113 00000-0 -49540-5 0 9997 2 43809 97.7564 126.2176 0015296 5.6516 354.4874 14.95330134 11667 OBJECT BE 1 43810U 18099BE 19052.85123864 -.00000159 00000-0 -91174-5 0 9991 2 43810 97.7475 126.1290 0014428 0.7982 359.3259 14.95327487 11517 PWSat 2 1 43814U 18099BJ 19052.85186340 .00010404 00000-0 92825-3 0 9997 2 43814 97.7690 126.2586 0003283 348.9220 11.1926 14.96146858 11367 OBJECT BS 1 43822U 18099BS 19052.18759967 -.00000074 00000-0 -14590-5 0 9992 2 43822 97.7573 125.5522 0015295 1.3456 358.7803 14.94981599 5460 CHOMPTT 1 43855U 18104G 19052.62228097 .00000042 00000-0 00000 0 0 9997 2 43855 85.0393 133.8296 0019315 32.3336 327.9136 15.22153269 10217 ISAT 1 43879U 18111D 19052.87060257 .00000216 00000-0 24419-4 0 9998 2 43879 97.7250 322.5260 0014437 57.7276 302.5341 14.95892775 6489 UWE-4 1 43880U 18111E 19052.86131520 -.00000075 00000-0 -14715-5 0 9995 2 43880 97.7262 322.5455 0013614 58.6107 301.6444 14.96138820 6488 Sparrow 1 43881U 18111F 19052.85967729 -.00000104 00000-0 -40635-5 0 9996 2 43881 97.7266 322.5500 0013742 57.3888 302.8658 14.96183361 6488 Lume 1 1 43908U 18111AJ 19052.87697253 .00001166 00000-0 50594-4 0 9991 2 43908 97.2983 321.2730 0023147 46.6677 313.6485 15.24065751 8650 FO-98 1 43933U 19003B 19052.76209192 .00000600 00000-0 29598-4 0 9991 2 43933 97.2986 114.0031 0019291 131.6250 6.2789 15.21445126 5272 FO-99 1 43937U 19003F 19052.84381685 .00000956 00000-0 42904-4 0 9992 2 43937 97.2941 114.1481 0026125 121.4819 328.6542 15.23261058 5291 Delphini 1 1 44030U 98067PW 19051.83349206 .00008575 00000-0 13664-3 0 9990 2 44030 51.6378 219.6834 0004865 72.2449 287.9073 15.54121985 3209 MYSat 1 1 44045U 18092F 19052.50480452 .00002486 00000-0 84882-4 0 9996 2 44045 51.6399 218.1341 0012191 25.5481 334.6088 15.34320797 1241 KickSat 2 1 44046U 18092G 19052.73063435 .00120298 16554-4 36406-3 0 9995 2 44046 51.6386 213.6346 0008778 331.7956 28.2739 15.91887585 1300 /EX
